{"data":{"norad_id":63804,"epoch":"2026-05-25T03:38:38.802336Z","epoch_age_seconds":57817,"freshness":"FRESH","line1":"1 63804U 25092A   26145.15183799  .00028117  00000+0  10270-2 0  9990","line2":"2 63804  43.0013 101.1544 0001557 255.5020 104.5659 15.27591245 60307","mean_motion":15.27591245,"eccentricity":0.0001557,"inclination_deg":43.0013,"raan_deg":101.1544,"arg_perigee_deg":255.502,"mean_anomaly_deg":104.5659,"bstar":0.001027,"rev_number":6030,"period_min":94.266054791378,"perigee_km":481.94714323832,"apogee_km":484.08370610336,"semimajor_km":6861.1524246708,"source":"CELESTRAK","updated_at":"2026-05-25T13:38:20.138957Z"}}